START_TIME,STEP,MOV.,H8,t_acc.,H43,t_acc.,M25,t_acc.,H9,t_acc.
1979-03-01 15:00:18.960 ,2,0,0.,12.0,0.,12.0,0.,12.0,0.,12.0
1979-03-01 15:00:30.960 ,2,0,0.,12.0,0.,12.0,0.,12.0,0.,12.0
1979-03-01 15:00:42.960 ,1,0,0.,12.0,0.,12.0,0.,12.0,0.,12.0
1979-03-01 15:00:54.960 ,1,0,0.,12.0,0.,12.0,0.,12.0,0.,12.0
1979-03-01 15:01:06.960 ,0,0,0.,12.0,0.,12.0,0.,12.0,0.,12.0
1979-03-01 15:01:18.960 ,0,0,0.,12.0,0.,12.0,0.,12.0,0.,12.0
1979-03-01 15:01:30.960 ,0,0,0.,12.0,0.,12.0,0.,12.0,0.,12.0
1979-03-01 15:01:42.960 ,0,0,0.,12.0,0.,12.0,0.,12.0,0.,12.0
1979-03-01 15:01:54.960 ,1,0,0.,12.0,0.,12.0,0.,12.0,0.,12.0
1979-03-01 15:02:06.960 ,1,0,0.,12.0,0.,12.0,0.,12.0,0.,12.0
1979-03-01 15:02:18.960 ,2,0,0.,12.0,0.,12.0,0.,12.0,0.,12.0
1979-03-01 15:02:30.960 ,2,0,0.,12.0,0.,12.0,0.,12.0,0.,12.0
1979-03-01 15:02:42.960 ,0,0,0.,12.0,0.,12.0,0.,12.0,0.,12.0
1979-03-01 15:02:54.960 ,0,0,0.,12.0,0.,12.0,0.,12.0,0.,12.0
1979-03-01 15:03:02.160 ,3,0,,0,,0,,0,,0
1979-03-01 15:03:14.160 ,3,0,,0,,0,,0,,0
1979-03-01 15:03:06.960 ,4,0,0.,12.0,0.,12.0,0.,12.0,0.,12.0
1979-03-01 15:03:18.960 ,4,0,0.,12.0,0.,12.0,0.,12.0,0.,12.0
1979-03-01 15:03:30.960 ,5,0,0.,12.0,0.,12.0,0.,12.0,0.,12.0
1979-03-01 15:03:42.960 ,5,0,0.,12.0,0.,12.0,0.,12.0,0.,12.0
1979-03-01 15:03:54.960 ,6,0,0.,12.0,0.,12.0,1.,12.0,0.,12.0
1979-03-01 15:04:06.960 ,6,0,0.,12.0,0.,12.0,0.,12.0,0.,12.0
1979-03-01 15:04:18.960 ,7,0,0.,12.0,0.,12.0,0.,12.0,0.,12.0
1979-03-01 15:04:30.960 ,7,0,0.,12.0,0.,12.0,0.,12.0,0.,12.0
1979-03-01 15:04:42.960 ,7,0,0.,12.0,0.,12.0,0.,12.0,0.,12.0
1979-03-01 15:04:54.960 ,7,0,0.,12.0,0.,12.0,0.,12.0,0.,12.0
1979-03-01 15:05:06.960 ,6,0,0.,12.0,0.,12.0,0.,12.0,0.,12.0
1979-03-01 15:05:18.960 ,6,0,0.,12.0,0.,12.0,0.,12.0,0.,12.0
1979-03-01 15:05:30.960 ,5,0,0.,12.0,0.,12.0,0.,12.0,0.,12.0
1979-03-01 15:05:42.960 ,5,0,0.,12.0,0.,12.0,0.,12.0,0.,12.0
1979-03-01 15:05:54.960 ,4,0,0.,12.0,0.,12.0,0.,12.0,0.,12.0
1979-03-01 15:06:06.960 ,4,0,0.,12.0,0.,12.0,0.,12.0,0.,12.0
1979-03-01 15:06:18.960 ,3,0,0.,12.0,0.,12.0,0.,12.0,0.,12.0
1979-03-01 15:06:30.960 ,3,0,0.,12.0,0.,12.0,0.,12.0,0.,12.0
1979-03-01 15:06:42.960 ,2,0,0.,12.0,0.,12.0,0.,12.0,0.,12.0
1979-03-01 15:06:54.960 ,2,0,0.,12.0,0.,12.0,0.,12.0,0.,12.0
1979-03-01 15:07:06.960 ,1,0,0.,12.0,0.,12.0,0.,12.0,0.,12.0
1979-03-01 15:07:18.960 ,1,0,0.,12.0,0.,12.0,0.,12.0,0.,12.0
1979-03-01 15:07:30.960 ,0,0,0.,12.0,0.,12.0,0.,12.0,0.,12.0
1979-03-01 15:07:42.960 ,0,0,0.,12.0,0.,12.0,0.,12.0,0.,12.0
1979-03-01 15:07:54.960 ,0,0,0.,12.0,0.,12.0,0.,12.0,0.,12.0
1979-03-01 15:08:06.960 ,0,0,0.,12.0,0.,12.0,0.,12.0,0.,12.0
1979-03-01 15:08:18.960 ,1,0,0.,12.0,0.,12.0,0.,12.0,0.,12.0
1979-03-01 15:08:30.960 ,1,0,0.,12.0,0.,12.0,0.,12.0,0.,12.0
1979-03-01 15:08:42.960 ,2,0,0.,12.0,0.,12.0,0.,12.0,0.,12.0
1979-03-01 15:08:54.960 ,2,0,0.,12.0,0.,12.0,0.,12.0,0.,12.0
1979-03-01 15:09:06.960 ,3,0,0.,12.0,0.,12.0,0.,12.0,0.,12.0
1979-03-01 15:09:18.960 ,3,0,0.,12.0,0.,12.0,0.,12.0,0.,12.0
1979-03-01 15:09:30.960 ,4,0,0.,12.0,0.,12.0,0.,12.0,0.,12.0
1979-03-01 15:09:42.960 ,4,0,0.,12.0,0.,12.0,0.,12.0,0.,12.0
1979-03-01 15:09:54.960 ,5,0,0.,12.0,0.,12.0,0.,12.0,0.,12.0
1979-03-01 15:10:06.960 ,5,0,0.,12.0,0.,12.0,0.,12.0,0.,12.0
1979-03-01 15:10:18.960 ,6,0,0.,12.0,0.,12.0,0.,12.0,0.,12.0
1979-03-01 15:10:30.960 ,6,0,0.,12.0,0.,12.0,0.,12.0,0.,12.0
1979-03-01 15:10:42.960 ,7,0,0.,12.0,0.,12.0,0.,12.0,0.,12.0
1979-03-01 15:10:54.960 ,7,0,0.,12.0,0.,12.0,0.,12.0,0.,12.0
1979-03-01 15:11:06.960 ,7,0,0.,12.0,0.,12.0,0.,12.0,0.,12.0
1979-03-01 15:11:18.960 ,7,0,0.,12.0,0.,12.0,0.,12.0,0.,12.0
1979-03-01 15:11:30.960 ,6,0,0.,12.0,0.,12.0,0.,12.0,0.,12.0
1979-03-01 15:11:42.960 ,6,0,0.,12.0,0.,12.0,0.,12.0,0.,12.0
1979-03-01 15:11:54.960 ,5,0,0.,12.0,0.,12.0,0.,12.0,0.,12.0
1979-03-01 15:12:06.960 ,5,0,0.,12.0,0.,12.0,0.,12.0,0.,12.0
1979-03-01 15:12:18.960 ,4,0,0.,12.0,0.,12.0,0.,12.0,0.,12.0
1979-03-01 15:12:30.960 ,4,0,0.,12.0,0.,12.0,0.,12.0,0.,12.0
1979-03-01 15:12:42.960 ,3,0,0.,12.0,0.,12.0,0.,12.0,0.,12.0
1979-03-01 15:12:54.960 ,3,0,0.,12.0,0.,12.0,0.,12.0,0.,12.0
1979-03-01 15:13:06.960 ,2,0,0.,12.0,0.,12.0,0.,12.0,0.,12.0
1979-03-01 15:13:18.960 ,2,0,0.,12.0,0.,12.0,0.,12.0,0.,12.0
1979-03-01 15:13:30.960 ,1,0,0.,12.0,0.,12.0,0.,12.0,0.,12.0
1979-03-01 15:13:42.960 ,1,0,0.,12.0,0.,12.0,0.,12.0,0.,12.0
1979-03-01 15:13:54.960 ,0,0,1.,12.0,0.,12.0,0.,12.0,0.,12.0
1979-03-01 15:14:06.960 ,0,0,0.,12.0,0.,12.0,0.,12.0,0.,12.0
1979-03-01 15:14:18.960 ,0,0,0.,12.0,0.,12.0,0.,12.0,0.,12.0
1979-03-01 15:14:30.960 ,0,0,0.,12.0,0.,12.0,0.,12.0,0.,12.0
1979-03-01 15:14:42.960 ,1,0,0.,12.0,0.,12.0,0.,12.0,0.,12.0
1979-03-01 15:14:54.960 ,1,0,0.,12.0,0.,12.0,0.,12.0,0.,12.0
1979-03-01 15:15:06.960 ,2,0,0.,12.0,0.,12.0,0.,12.0,0.,12.0
1979-03-01 15:15:18.960 ,2,0,0.,12.0,0.,12.0,0.,12.0,0.,12.0
1979-03-01 15:15:30.960 ,3,0,0.,12.0,0.,12.0,0.,12.0,0.,12.0
1979-03-01 15:15:42.960 ,3,0,0.,12.0,0.,12.0,0.,12.0,0.,12.0
1979-03-01 15:15:54.960 ,4,0,1.,12.0,0.,12.0,0.,12.0,0.,12.0
1979-03-01 15:16:06.960 ,4,0,0.,12.0,0.,12.0,0.,12.0,0.,12.0
1979-03-01 15:16:18.960 ,5,0,0.,12.0,0.,12.0,0.,12.0,0.,12.0
1979-03-01 15:16:30.960 ,5,0,0.,12.0,0.,12.0,0.,12.0,0.,12.0
1979-03-01 15:16:42.960 ,6,0,0.,12.0,0.,12.0,0.,12.0,0.,12.0
1979-03-01 15:16:54.960 ,6,0,1.,12.0,0.,12.0,0.,12.0,0.,12.0
1979-03-01 15:17:06.960 ,7,0,0.,12.0,0.,12.0,0.,12.0,0.,12.0
1979-03-01 15:17:18.960 ,7,0,0.,12.0,0.,12.0,0.,12.0,0.,12.0
1979-03-01 15:17:30.960 ,7,0,0.,12.0,0.,12.0,0.,12.0,0.,12.0
1979-03-01 15:17:42.960 ,7,0,0.,12.0,0.,12.0,0.,12.0,0.,12.0
1979-03-01 15:17:54.960 ,6,0,0.,12.0,0.,12.0,0.,12.0,0.,12.0
1979-03-01 15:18:06.960 ,6,0,0.,12.0,0.,12.0,0.,12.0,0.,12.0
1979-03-01 15:18:18.960 ,5,0,0.,12.0,0.,12.0,0.,12.0,0.,12.0
1979-03-01 15:18:30.960 ,5,0,0.,12.0,0.,12.0,0.,12.0,0.,12.0
1979-03-01 15:18:42.960 ,4,0,0.,12.0,0.,12.0,0.,12.0,0.,12.0
1979-03-01 15:18:54.960 ,4,0,0.,12.0,0.,12.0,0.,12.0,0.,12.0
1979-03-01 15:19:06.960 ,3,0,0.,12.0,0.,12.0,0.,12.0,0.,12.0
1979-03-01 15:19:18.960 ,3,0,1.,12.0,0.,12.0,0.,12.0,0.,12.0
1979-03-01 15:19:30.960 ,2,0,0.,12.0,0.,12.0,0.,12.0,0.,12.0
1979-03-01 15:19:42.960 ,2,0,0.,12.0,0.,12.0,0.,12.0,0.,12.0
1979-03-01 15:19:54.960 ,1,0,0.,12.0,0.,12.0,0.,12.0,0.,12.0
1979-03-01 15:20:06.960 ,1,0,0.,12.0,0.,12.0,0.,12.0,0.,12.0
1979-03-01 15:20:18.960 ,0,0,0.,12.0,0.,12.0,0.,12.0,0.,12.0
1979-03-01 15:20:30.960 ,0,0,0.,12.0,0.,12.0,0.,12.0,0.,12.0
1979-03-01 15:20:42.960 ,0,0,0.,12.0,0.,12.0,0.,12.0,0.,12.0
1979-03-01 15:20:54.960 ,0,0,0.,12.0,0.,12.0,0.,12.0,0.,12.0
1979-03-01 15:21:06.960 ,1,0,0.,12.0,0.,12.0,0.,12.0,0.,12.0
1979-03-01 15:21:18.960 ,1,0,0.,12.0,0.,12.0,0.,12.0,0.,12.0
1979-03-01 15:21:30.960 ,2,0,0.,12.0,0.,12.0,0.,12.0,0.,12.0
1979-03-01 15:21:42.960 ,2,0,0.,12.0,0.,12.0,0.,12.0,0.,12.0
1979-03-01 15:21:54.960 ,3,0,0.,12.0,0.,12.0,0.,12.0,0.,12.0
1979-03-01 15:22:06.960 ,3,0,0.,12.0,0.,12.0,0.,12.0,0.,12.0
1979-03-01 15:22:18.960 ,4,0,0.,12.0,0.,12.0,0.,12.0,0.,12.0
1979-03-01 15:22:30.960 ,4,0,0.,12.0,0.,12.0,0.,12.0,0.,12.0
1979-03-01 15:22:42.960 ,5,0,0.,12.0,0.,12.0,0.,12.0,0.,12.0
1979-03-01 15:22:54.960 ,5,0,0.,12.0,0.,12.0,0.,12.0,0.,12.0
1979-03-01 15:23:06.960 ,6,0,0.,12.0,0.,12.0,0.,12.0,0.,12.0
1979-03-01 15:23:18.960 ,6,0,0.,12.0,0.,12.0,0.,12.0,0.,12.0
1979-03-01 15:23:30.960 ,7,0,0.,12.0,0.,12.0,0.,12.0,0.,12.0
1979-03-01 15:23:42.960 ,7,0,0.,12.0,0.,12.0,0.,12.0,0.,12.0
1979-03-01 15:23:54.960 ,7,0,0.,12.0,0.,12.0,0.,12.0,0.,12.0
1979-03-01 15:24:06.960 ,7,0,0.,12.0,0.,12.0,0.,12.0,0.,12.0
1979-03-01 15:24:18.960 ,6,0,0.,12.0,0.,12.0,0.,12.0,0.,12.0
1979-03-01 15:24:30.960 ,6,0,0.,12.0,0.,12.0,0.,12.0,0.,12.0
1979-03-01 15:24:42.960 ,5,0,0.,12.0,0.,12.0,0.,12.0,0.,12.0
1979-03-01 15:24:54.960 ,5,0,0.,12.0,0.,12.0,0.,12.0,0.,12.0
1979-03-01 15:25:06.960 ,4,0,0.,12.0,0.,12.0,0.,12.0,0.,12.0
1979-03-01 15:25:18.960 ,4,0,0.,12.0,0.,12.0,0.,12.0,0.,12.0
1979-03-01 15:25:30.960 ,3,0,0.,12.0,0.,12.0,0.,12.0,0.,12.0
1979-03-01 15:25:42.960 ,3,0,0.,12.0,0.,12.0,0.,12.0,0.,12.0
1979-03-01 15:25:54.960 ,2,0,0.,12.0,0.,12.0,0.,12.0,0.,12.0
1979-03-01 15:26:06.960 ,2,0,0.,12.0,0.,12.0,0.,12.0,0.,12.0
1979-03-01 15:26:18.960 ,1,0,0.,12.0,0.,12.0,0.,12.0,0.,12.0
1979-03-01 15:26:30.960 ,1,0,0.,12.0,0.,12.0,0.,12.0,0.,12.0
1979-03-01 15:26:42.960 ,0,0,0.,12.0,0.,12.0,0.,12.0,0.,12.0
1979-03-01 15:26:54.960 ,0,0,0.,12.0,0.,12.0,0.,12.0,0.,12.0
1979-03-01 15:27:06.960 ,0,0,0.,12.0,0.,12.0,0.,12.0,0.,12.0
1979-03-01 15:27:18.960 ,0,0,0.,12.0,0.,12.0,0.,12.0,0.,12.0
1979-03-01 15:27:30.960 ,1,0,0.,12.0,0.,12.0,0.,12.0,0.,12.0
1979-03-01 15:27:42.960 ,1,0,0.,12.0,0.,12.0,0.,12.0,0.,12.0
1979-03-01 15:27:54.960 ,2,0,0.,12.0,0.,12.0,0.,12.0,0.,12.0
1979-03-01 15:28:06.960 ,2,0,0.,12.0,0.,12.0,0.,12.0,0.,12.0
1979-03-01 15:28:18.960 ,3,0,0.,12.0,0.,12.0,0.,12.0,0.,12.0
1979-03-01 15:28:30.960 ,3,0,0.,12.0,0.,12.0,0.,12.0,0.,12.0
1979-03-01 15:28:42.960 ,4,0,0.,12.0,0.,12.0,0.,12.0,0.,12.0
1979-03-01 15:28:54.960 ,4,0,0.,12.0,0.,12.0,0.,12.0,0.,12.0
1979-03-01 15:29:06.960 ,5,0,0.,12.0,0.,12.0,0.,12.0,0.,12.0
1979-03-01 15:29:18.960 ,5,0,0.,12.0,0.,12.0,0.,12.0,0.,12.0
1979-03-01 15:29:30.960 ,6,0,0.,12.0,0.,12.0,0.,12.0,0.,12.0
1979-03-01 15:29:42.960 ,6,0,0.,12.0,0.,12.0,0.,12.0,0.,12.0
1979-03-01 15:29:54.960 ,7,0,0.,12.0,0.,12.0,0.,12.0,0.,12.0
1979-03-01 15:30:06.960 ,7,0,0.,12.0,0.,12.0,0.,12.0,0.,12.0
1979-03-01 15:30:18.960 ,7,0,0.,12.0,0.,12.0,0.,12.0,0.,12.0
1979-03-01 15:30:30.960 ,7,0,0.,12.0,0.,12.0,0.,12.0,0.,12.0
1979-03-01 15:30:42.960 ,6,0,0.,12.0,0.,12.0,0.,12.0,0.,12.0
1979-03-01 15:30:54.960 ,6,0,0.,12.0,0.,12.0,0.,12.0,0.,12.0
1979-03-01 15:31:06.960 ,0,0,,0,,0,,0,,0
1979-03-01 15:31:18.960 ,0,0,,0,,0,,0,,0
1979-03-01 15:31:30.960 ,0,0,,0,,0,,0,,0
1979-03-01 15:31:42.960 ,0,0,,0,,0,,0,,0
1979-03-01 15:31:56.760 ,0,0,0.,12.0,0.,12.0,0.,12.0,0.,12.0
1979-03-01 15:32:08.760 ,0,0,0.,12.0,0.,12.0,0.,12.0,0.,12.0
1979-03-01 15:32:18.960 ,2,0,0.,12.0,0.,12.0,0.,12.0,0.,12.0
1979-03-01 15:32:30.960 ,2,0,0.,12.0,0.,12.0,0.,12.0,0.,12.0
1979-03-01 15:32:42.960 ,1,0,0.,12.0,0.,12.0,0.,12.0,0.,12.0
1979-03-01 15:32:54.960 ,1,0,0.,12.0,0.,12.0,0.,12.0,0.,12.0
1979-03-01 15:33:06.960 ,0,0,0.,12.0,0.,12.0,0.,12.0,0.,12.0
1979-03-01 15:33:18.960 ,0,0,0.,12.0,0.,12.0,0.,12.0,0.,12.0
1979-03-01 15:33:30.960 ,0,0,0.,12.0,0.,12.0,0.,12.0,0.,12.0
1979-03-01 15:33:42.960 ,0,0,0.,12.0,0.,12.0,0.,12.0,0.,12.0
1979-03-01 15:33:54.960 ,1,0,0.,12.0,0.,12.0,0.,12.0,0.,12.0
1979-03-01 15:34:06.960 ,1,0,0.,12.0,0.,12.0,0.,12.0,0.,12.0
1979-03-01 15:34:18.960 ,2,0,0.,12.0,0.,12.0,0.,12.0,0.,12.0
1979-03-01 15:34:30.960 ,2,0,0.,12.0,0.,12.0,0.,12.0,0.,12.0
1979-03-01 15:34:42.960 ,3,0,0.,12.0,0.,12.0,0.,12.0,0.,12.0
1979-03-01 15:34:54.960 ,3,0,0.,12.0,0.,12.0,0.,12.0,0.,12.0
1979-03-01 15:35:06.960 ,4,0,0.,12.0,0.,12.0,0.,12.0,0.,12.0
1979-03-01 15:35:18.960 ,4,0,0.,12.0,0.,12.0,0.,12.0,0.,12.0
1979-03-01 15:35:30.960 ,5,0,0.,12.0,0.,12.0,0.,12.0,0.,12.0
1979-03-01 15:35:42.960 ,5,0,0.,12.0,0.,12.0,0.,12.0,0.,12.0
1979-03-01 15:35:54.960 ,6,0,0.,12.0,0.,12.0,0.,12.0,0.,12.0
1979-03-01 15:36:06.960 ,6,0,0.,12.0,0.,12.0,0.,12.0,0.,12.0
1979-03-01 15:36:18.960 ,7,0,0.,12.0,0.,12.0,0.,12.0,0.,12.0
1979-03-01 15:36:30.960 ,7,0,0.,12.0,0.,12.0,0.,12.0,0.,12.0
1979-03-01 15:36:42.960 ,7,0,0.,12.0,0.,12.0,0.,12.0,0.,12.0
1979-03-01 15:36:54.960 ,7,0,0.,12.0,0.,12.0,0.,12.0,0.,12.0
1979-03-01 15:37:06.960 ,6,0,0.,12.0,0.,12.0,0.,12.0,0.,12.0
1979-03-01 15:37:18.960 ,6,0,0.,12.0,0.,12.0,0.,12.0,0.,12.0
1979-03-01 15:37:30.960 ,5,0,0.,12.0,0.,12.0,0.,12.0,0.,12.0
1979-03-01 15:37:42.960 ,5,0,0.,12.0,0.,12.0,0.,12.0,0.,12.0
1979-03-01 15:37:54.960 ,4,0,0.,12.0,0.,12.0,0.,12.0,0.,12.0
1979-03-01 15:38:06.960 ,4,0,0.,12.0,0.,12.0,0.,12.0,0.,12.0
1979-03-01 15:38:18.960 ,3,0,0.,12.0,0.,12.0,0.,12.0,0.,12.0
1979-03-01 15:38:30.960 ,3,0,0.,12.0,0.,12.0,0.,12.0,0.,12.0
1979-03-01 15:38:42.960 ,2,0,0.,12.0,0.,12.0,0.,12.0,0.,12.0
1979-03-01 15:38:54.960 ,2,0,0.,12.0,0.,12.0,0.,12.0,0.,12.0
1979-03-01 15:39:06.960 ,1,0,0.,12.0,0.,12.0,0.,12.0,0.,12.0
1979-03-01 15:39:18.960 ,1,0,0.,12.0,0.,12.0,0.,12.0,0.,12.0
1979-03-01 15:39:30.960 ,0,0,0.,12.0,0.,12.0,0.,12.0,0.,12.0
1979-03-01 15:39:42.960 ,0,0,0.,12.0,0.,12.0,0.,12.0,0.,12.0
1979-03-01 15:39:54.960 ,0,0,,0,,0,,0,,0
1979-03-01 15:40:06.960 ,0,0,0.,12.0,0.,12.0,0.,12.0,0.,12.0
1979-03-01 15:40:18.960 ,1,0,0.,12.0,0.,12.0,0.,12.0,0.,12.0
1979-03-01 15:40:30.960 ,1,0,0.,12.0,0.,12.0,0.,12.0,0.,12.0
1979-03-01 15:40:42.960 ,2,0,0.,12.0,0.,12.0,0.,12.0,0.,12.0
1979-03-01 15:40:54.960 ,2,0,0.,12.0,0.,12.0,0.,12.0,0.,12.0
1979-03-01 15:41:06.960 ,3,0,0.,12.0,0.,12.0,0.,12.0,0.,12.0
1979-03-01 15:41:18.960 ,3,0,0.,12.0,0.,12.0,0.,12.0,0.,12.0
1979-03-01 15:41:30.960 ,4,0,0.,12.0,0.,12.0,0.,12.0,0.,12.0
1979-03-01 15:41:42.960 ,4,0,0.,12.0,0.,12.0,0.,12.0,0.,12.0
1979-03-01 15:41:54.960 ,5,0,0.,12.0,0.,12.0,0.,12.0,0.,12.0
1979-03-01 15:42:06.960 ,5,0,0.,12.0,0.,12.0,0.,12.0,0.,12.0
1979-03-01 15:42:18.960 ,6,0,0.,12.0,0.,12.0,0.,12.0,0.,12.0
1979-03-01 15:42:30.960 ,6,0,0.,12.0,0.,12.0,0.,12.0,0.,12.0
1979-03-01 15:42:42.960 ,7,0,0.,12.0,0.,12.0,0.,12.0,0.,12.0
1979-03-01 15:42:54.960 ,7,0,0.,12.0,0.,12.0,0.,12.0,0.,12.0
1979-03-01 15:43:06.960 ,7,0,0.,12.0,0.,12.0,0.,12.0,0.,12.0
1979-03-01 15:43:18.960 ,7,0,0.,12.0,0.,12.0,0.,12.0,0.,12.0
1979-03-01 15:43:30.960 ,6,0,0.,12.0,0.,12.0,0.,12.0,0.,12.0
1979-03-01 15:43:42.960 ,6,0,0.,12.0,0.,12.0,0.,12.0,0.,12.0
1979-03-01 15:43:54.960 ,5,0,0.,12.0,0.,12.0,0.,12.0,0.,12.0
1979-03-01 15:44:06.960 ,5,0,0.,12.0,0.,12.0,0.,12.0,0.,12.0
1979-03-01 15:44:18.960 ,4,0,0.,12.0,0.,12.0,0.,12.0,0.,12.0
1979-03-01 15:44:30.960 ,4,0,0.,12.0,0.,12.0,0.,12.0,0.,12.0
1979-03-01 15:44:42.960 ,3,0,0.,12.0,0.,12.0,0.,12.0,0.,12.0
1979-03-01 15:44:54.960 ,3,0,0.,12.0,0.,12.0,0.,12.0,0.,12.0
1979-03-01 15:45:06.960 ,2,0,0.,12.0,0.,12.0,0.,12.0,0.,12.0
1979-03-01 15:45:18.960 ,2,0,0.,12.0,0.,12.0,0.,12.0,0.,12.0
1979-03-01 15:45:30.960 ,1,0,0.,12.0,0.,12.0,0.,12.0,0.,12.0
1979-03-01 15:45:42.960 ,1,0,0.,12.0,0.,12.0,0.,12.0,0.,12.0
1979-03-01 15:45:54.960 ,0,0,0.,12.0,0.,12.0,0.,12.0,0.,12.0
1979-03-01 15:46:06.960 ,0,0,0.,12.0,0.,12.0,0.,12.0,0.,12.0
1979-03-01 15:46:18.960 ,0,0,0.,12.0,0.,12.0,0.,12.0,0.,12.0
1979-03-01 15:46:30.960 ,0,0,0.,12.0,0.,12.0,0.,12.0,0.,12.0
1979-03-01 15:46:42.960 ,1,0,0.,12.0,0.,12.0,0.,12.0,0.,12.0
1979-03-01 15:46:54.960 ,1,0,0.,12.0,0.,12.0,0.,12.0,0.,12.0
1979-03-01 15:47:06.960 ,2,0,0.,12.0,0.,12.0,0.,12.0,0.,12.0
1979-03-01 15:47:18.960 ,2,0,0.,12.0,0.,12.0,0.,12.0,0.,12.0
1979-03-01 15:47:30.960 ,3,0,0.,12.0,0.,12.0,0.,12.0,0.,12.0
1979-03-01 15:47:42.960 ,3,0,0.,12.0,0.,12.0,0.,12.0,0.,12.0
1979-03-01 15:47:54.960 ,4,0,0.,12.0,0.,12.0,0.,12.0,0.,12.0
1979-03-01 15:48:06.960 ,4,0,0.,12.0,0.,12.0,0.,12.0,0.,12.0
1979-03-01 15:48:18.960 ,5,0,0.,12.0,0.,12.0,0.,12.0,0.,12.0
1979-03-01 15:48:30.960 ,5,0,0.,12.0,0.,12.0,0.,12.0,0.,12.0
1979-03-01 15:48:42.960 ,6,0,0.,12.0,0.,12.0,0.,12.0,0.,12.0
1979-03-01 15:48:54.960 ,6,0,0.,12.0,0.,12.0,0.,12.0,0.,12.0
1979-03-01 15:49:06.960 ,7,0,0.,12.0,0.,12.0,0.,12.0,0.,12.0
1979-03-01 15:49:18.960 ,7,0,0.,12.0,0.,12.0,0.,12.0,0.,12.0
1979-03-01 15:49:30.960 ,7,0,0.,12.0,0.,12.0,0.,12.0,0.,12.0
1979-03-01 15:49:42.960 ,7,0,0.,12.0,0.,12.0,0.,12.0,0.,12.0
1979-03-01 15:49:54.960 ,6,0,0.,12.0,0.,12.0,0.,12.0,0.,12.0
1979-03-01 15:50:06.960 ,6,0,0.,12.0,0.,12.0,0.,12.0,0.,12.0
1979-03-01 15:50:18.960 ,5,0,0.,12.0,0.,12.0,0.,12.0,0.,12.0
1979-03-01 15:50:30.960 ,5,0,0.,12.0,0.,12.0,0.,12.0,0.,12.0
1979-03-01 15:50:42.960 ,4,0,0.,12.0,0.,12.0,0.,12.0,0.,12.0
1979-03-01 15:50:54.960 ,4,0,0.,12.0,0.,12.0,0.,12.0,0.,12.0
1979-03-01 15:51:06.960 ,3,0,0.,12.0,0.,12.0,0.,12.0,0.,12.0
1979-03-01 15:51:18.960 ,3,0,0.,12.0,0.,12.0,0.,12.0,0.,12.0
1979-03-01 15:51:30.960 ,2,0,0.,12.0,0.,12.0,0.,12.0,0.,12.0
1979-03-01 15:51:42.960 ,2,0,0.,12.0,0.,12.0,0.,12.0,0.,12.0
1979-03-01 15:51:54.960 ,1,0,0.,12.0,0.,12.0,0.,12.0,0.,12.0
1979-03-01 15:52:06.960 ,1,0,0.,12.0,0.,12.0,0.,12.0,0.,12.0
1979-03-01 15:52:18.960 ,0,0,0.,12.0,0.,12.0,0.,12.0,0.,12.0
1979-03-01 15:52:30.960 ,0,0,0.,12.0,0.,12.0,0.,12.0,0.,12.0
1979-03-01 15:52:42.960 ,0,0,0.,12.0,0.,12.0,0.,12.0,0.,12.0
1979-03-01 15:52:54.960 ,0,0,0.,12.0,0.,12.0,0.,12.0,0.,12.0
1979-03-01 15:53:06.960 ,1,0,0.,12.0,0.,12.0,0.,12.0,0.,12.0
1979-03-01 15:53:18.960 ,1,0,0.,12.0,0.,12.0,0.,12.0,0.,12.0
1979-03-01 15:53:30.960 ,2,0,0.,12.0,0.,12.0,0.,12.0,0.,12.0
1979-03-01 15:53:42.960 ,2,0,0.,12.0,0.,12.0,0.,12.0,0.,12.0
1979-03-01 15:53:54.960 ,3,0,0.,12.0,0.,12.0,0.,12.0,0.,12.0
1979-03-01 15:54:06.960 ,3,0,0.,12.0,0.,12.0,0.,12.0,0.,12.0
1979-03-01 15:54:18.960 ,4,0,0.,12.0,0.,12.0,0.,12.0,0.,12.0
1979-03-01 15:54:30.960 ,4,0,0.,12.0,0.,12.0,0.,12.0,0.,12.0
1979-03-01 15:54:42.960 ,5,0,0.,12.0,0.,12.0,0.,12.0,0.,12.0
1979-03-01 15:54:54.960 ,5,0,0.,12.0,0.,12.0,0.,12.0,0.,12.0
1979-03-01 15:55:06.960 ,6,0,0.,12.0,0.,12.0,0.,12.0,0.,12.0
1979-03-01 15:55:18.960 ,6,0,0.,12.0,0.,12.0,0.,12.0,0.,12.0
1979-03-01 15:55:30.960 ,7,0,0.,12.0,0.,12.0,0.,12.0,0.,12.0
1979-03-01 15:55:42.960 ,7,0,0.,12.0,0.,12.0,0.,12.0,0.,12.0
1979-03-01 15:55:54.960 ,7,0,0.,12.0,0.,12.0,0.,12.0,0.,12.0
1979-03-01 15:56:06.960 ,7,0,0.,12.0,0.,12.0,0.,12.0,0.,12.0
1979-03-01 15:56:18.960 ,6,0,0.,12.0,0.,12.0,0.,12.0,0.,12.0
1979-03-01 15:56:30.960 ,6,0,0.,12.0,0.,12.0,0.,12.0,0.,12.0
1979-03-01 15:56:42.960 ,5,0,0.,12.0,0.,12.0,0.,12.0,0.,12.0
1979-03-01 15:56:54.960 ,5,0,0.,12.0,0.,12.0,0.,12.0,0.,12.0
1979-03-01 15:57:06.960 ,4,0,0.,12.0,0.,12.0,0.,12.0,0.,12.0
1979-03-01 15:57:18.960 ,4,0,0.,12.0,0.,12.0,0.,12.0,0.,12.0
1979-03-01 15:57:30.960 ,3,0,0.,12.0,0.,12.0,0.,12.0,0.,12.0
1979-03-01 15:57:42.960 ,3,0,0.,12.0,0.,12.0,0.,12.0,0.,12.0
1979-03-01 15:57:54.960 ,2,0,0.,12.0,0.,12.0,0.,12.0,0.,12.0
1979-03-01 15:58:06.960 ,2,0,0.,12.0,0.,12.0,0.,12.0,0.,12.0
1979-03-01 15:58:18.960 ,1,0,0.,12.0,0.,12.0,0.,12.0,0.,12.0
1979-03-01 15:58:30.960 ,1,0,0.,12.0,0.,12.0,0.,12.0,0.,12.0
1979-03-01 15:58:42.960 ,0,0,0.,12.0,0.,12.0,0.,12.0,0.,12.0
1979-03-01 15:58:54.960 ,0,0,0.,12.0,0.,12.0,0.,12.0,0.,12.0
1979-03-01 15:59:06.960 ,0,0,0.,12.0,0.,12.0,0.,12.0,0.,12.0
1979-03-01 15:59:18.960 ,0,0,0.,12.0,0.,12.0,0.,12.0,0.,12.0
1979-03-01 15:59:30.960 ,1,0,0.,12.0,0.,12.0,0.,12.0,0.,12.0
1979-03-01 15:59:42.960 ,1,0,0.,12.0,0.,12.0,0.,12.0,0.,12.0
1979-03-01 15:59:54.960 ,2,0,0.,12.0,0.,12.0,0.,12.0,0.,12.0
1979-03-01 16:00:06.960 ,2,0,0.,12.0,0.,12.0,0.,12.0,0.,12.0
1979-03-01 16:00:18.960 ,3,0,0.,12.0,0.,12.0,0.,12.0,0.,12.0
1979-03-01 16:00:30.960 ,3,0,0.,12.0,0.,12.0,0.,12.0,0.,12.0
1979-03-01 16:00:42.960 ,4,0,0.,12.0,0.,12.0,0.,12.0,0.,12.0
1979-03-01 16:00:54.960 ,4,0,0.,12.0,0.,12.0,0.,12.0,0.,12.0
1979-03-01 16:01:06.960 ,5,0,0.,12.0,0.,12.0,0.,12.0,0.,12.0
1979-03-01 16:01:18.960 ,5,0,0.,12.0,0.,12.0,0.,12.0,0.,12.0
1979-03-01 16:01:30.960 ,6,0,0.,12.0,0.,12.0,0.,12.0,0.,12.0
1979-03-01 16:01:42.960 ,6,0,0.,12.0,0.,12.0,0.,12.0,0.,12.0
1979-03-01 16:01:54.960 ,7,0,0.,12.0,0.,12.0,0.,12.0,0.,12.0
1979-03-01 16:02:06.960 ,7,0,0.,12.0,0.,12.0,0.,12.0,0.,12.0
1979-03-01 16:02:18.960 ,7,0,0.,12.0,0.,12.0,0.,12.0,0.,12.0
1979-03-01 16:02:30.960 ,7,0,0.,12.0,0.,12.0,0.,12.0,0.,12.0
1979-03-01 16:02:42.960 ,6,0,0.,12.0,0.,12.0,0.,12.0,0.,12.0
1979-03-01 16:02:54.960 ,6,0,0.,12.0,0.,12.0,0.,12.0,0.,12.0
1979-03-01 16:03:06.960 ,5,0,0.,12.0,0.,12.0,0.,12.0,0.,12.0
1979-03-01 16:03:18.960 ,5,0,0.,12.0,0.,12.0,0.,12.0,0.,12.0
1979-03-01 16:03:30.960 ,4,0,0.,12.0,0.,12.0,0.,12.0,0.,12.0
1979-03-01 16:03:42.960 ,4,0,0.,12.0,0.,12.0,0.,12.0,0.,12.0
1979-03-01 16:03:54.960 ,3,0,0.,12.0,0.,12.0,0.,12.0,0.,12.0
1979-03-01 16:04:06.960 ,3,0,0.,12.0,0.,12.0,0.,12.0,0.,12.0
1979-03-01 16:04:18.960 ,2,0,0.,12.0,0.,12.0,0.,12.0,0.,12.0
1979-03-01 16:04:30.960 ,2,0,0.,12.0,0.,12.0,0.,12.0,0.,12.0
1979-03-01 16:04:42.960 ,1,0,0.,12.0,0.,12.0,0.,12.0,0.,12.0
1979-03-01 16:04:54.960 ,1,0,0.,12.0,0.,12.0,0.,12.0,0.,12.0
1979-03-01 16:05:06.960 ,0,0,0.,12.0,0.,12.0,0.,12.0,0.,12.0
1979-03-01 16:05:18.960 ,0,0,0.,12.0,0.,12.0,0.,12.0,0.,12.0
1979-03-01 16:05:30.960 ,0,0,0.,12.0,0.,12.0,0.,12.0,0.,12.0
1979-03-01 16:05:42.960 ,0,0,0.,12.0,0.,12.0,0.,12.0,0.,12.0
1979-03-01 16:05:54.960 ,1,0,0.,12.0,0.,12.0,0.,12.0,0.,12.0
1979-03-01 16:06:06.960 ,1,0,0.,12.0,0.,12.0,0.,12.0,0.,12.0
1979-03-01 16:06:18.960 ,2,0,0.,12.0,0.,12.0,0.,12.0,0.,12.0
1979-03-01 16:06:30.960 ,2,0,0.,12.0,0.,12.0,0.,12.0,0.,12.0
1979-03-01 16:06:42.960 ,3,0,0.,12.0,0.,12.0,0.,12.0,0.,12.0
1979-03-01 16:06:54.960 ,3,0,0.,12.0,0.,12.0,0.,12.0,0.,12.0
1979-03-01 16:07:06.960 ,4,0,1.,12.0,0.,12.0,0.,12.0,0.,12.0
1979-03-01 16:07:18.960 ,4,0,0.,12.0,0.,12.0,0.,12.0,0.,12.0
1979-03-01 16:07:30.960 ,5,0,0.,12.0,0.,12.0,0.,12.0,0.,12.0
1979-03-01 16:07:42.960 ,5,0,0.,12.0,0.,12.0,0.,12.0,0.,12.0
1979-03-01 16:07:54.960 ,6,0,0.,12.0,0.,12.0,0.,12.0,0.,12.0
1979-03-01 16:08:06.960 ,6,0,0.,12.0,0.,12.0,0.,12.0,0.,12.0
1979-03-01 16:08:18.960 ,7,0,0.,12.0,0.,12.0,0.,12.0,0.,12.0
1979-03-01 16:08:30.960 ,7,0,0.,12.0,0.,12.0,0.,12.0,0.,12.0
1979-03-01 16:08:42.960 ,7,0,0.,12.0,0.,12.0,0.,12.0,0.,12.0
1979-03-01 16:08:54.960 ,7,0,0.,12.0,0.,12.0,0.,12.0,0.,12.0
1979-03-01 16:09:06.960 ,6,0,0.,12.0,0.,12.0,0.,12.0,0.,12.0
1979-03-01 16:09:18.960 ,6,0,0.,12.0,0.,12.0,0.,12.0,0.,12.0
1979-03-01 16:09:30.960 ,5,0,0.,12.0,0.,12.0,0.,12.0,0.,12.0
1979-03-01 16:09:42.960 ,5,0,0.,12.0,0.,12.0,0.,12.0,0.,12.0
1979-03-01 16:09:54.960 ,4,0,0.,12.0,0.,12.0,0.,12.0,0.,12.0
1979-03-01 16:10:06.960 ,4,0,0.,12.0,0.,12.0,0.,12.0,0.,12.0
1979-03-01 16:10:18.960 ,3,0,0.,12.0,0.,12.0,0.,12.0,0.,12.0
1979-03-01 16:10:30.960 ,3,0,0.,12.0,0.,12.0,0.,12.0,0.,12.0
1979-03-01 16:10:42.960 ,2,0,0.,12.0,0.,12.0,0.,12.0,0.,12.0
1979-03-01 16:10:54.960 ,2,0,0.,12.0,0.,12.0,0.,12.0,0.,12.0
1979-03-01 16:11:06.960 ,1,0,0.,12.0,0.,12.0,0.,12.0,0.,12.0
1979-03-01 16:11:18.960 ,1,0,0.,12.0,0.,12.0,0.,12.0,0.,12.0
1979-03-01 16:11:30.960 ,0,0,0.,12.0,0.,12.0,0.,12.0,0.,12.0
1979-03-01 16:11:42.960 ,0,0,0.,12.0,0.,12.0,0.,12.0,0.,12.0
1979-03-01 16:11:54.960 ,0,0,0.,12.0,0.,12.0,0.,12.0,0.,12.0
1979-03-01 16:12:06.960 ,0,0,0.,12.0,0.,12.0,0.,12.0,0.,12.0
1979-03-01 16:12:18.960 ,1,0,0.,12.0,0.,12.0,0.,12.0,0.,12.0
1979-03-01 16:12:30.960 ,1,0,0.,12.0,0.,12.0,0.,12.0,0.,12.0
1979-03-01 16:12:42.960 ,2,0,0.,12.0,0.,12.0,0.,12.0,0.,12.0
1979-03-01 16:12:54.960 ,2,0,0.,12.0,0.,12.0,0.,12.0,0.,12.0
1979-03-01 16:13:06.960 ,3,0,0.,12.0,0.,12.0,0.,12.0,0.,12.0
1979-03-01 16:13:18.960 ,3,0,0.,12.0,0.,12.0,0.,12.0,0.,12.0
1979-03-01 16:13:30.960 ,4,0,0.,12.0,0.,12.0,0.,12.0,0.,12.0
1979-03-01 16:13:42.960 ,4,0,0.,12.0,0.,12.0,0.,12.0,0.,12.0
1979-03-01 16:13:54.960 ,5,0,,0,,0,,0,,0
1979-03-01 16:14:06.960 ,5,0,0.,12.0,0.,12.0,0.,12.0,0.,12.0
1979-03-01 16:14:18.960 ,6,0,0.,12.0,0.,12.0,0.,12.0,0.,12.0
1979-03-01 16:14:30.960 ,6,0,0.,12.0,0.,12.0,0.,12.0,0.,12.0
1979-03-01 16:14:42.960 ,0,0,0.,12.0,0.,12.0,0.,12.0,0.,12.0
1979-03-01 16:14:54.960 ,0,0,0.,12.0,0.,12.0,0.,12.0,0.,12.0
1979-03-01 16:15:10.560 ,0,0,0.,12.0,0.,12.0,0.,12.0,0.,12.0
1979-03-01 16:15:22.560 ,0,0,0.,12.0,0.,12.0,0.,12.0,0.,12.0
1979-03-01 16:15:30.960 ,6,0,0.,12.0,0.,12.0,0.,12.0,0.,12.0
1979-03-01 16:15:42.960 ,6,0,0.,12.0,0.,12.0,0.,12.0,0.,12.0
1979-03-01 16:15:54.960 ,5,0,0.,12.0,0.,12.0,0.,12.0,0.,12.0
1979-03-01 16:16:06.960 ,5,0,0.,12.0,0.,12.0,0.,12.0,0.,12.0
1979-03-01 16:16:18.960 ,4,0,0.,12.0,0.,12.0,0.,12.0,0.,12.0
1979-03-01 16:16:30.960 ,4,0,0.,12.0,0.,12.0,0.,12.0,0.,12.0
1979-03-01 16:16:42.960 ,3,0,0.,12.0,0.,12.0,0.,12.0,0.,12.0
1979-03-01 16:16:54.960 ,3,0,0.,12.0,0.,12.0,0.,12.0,0.,12.0
1979-03-01 16:17:06.960 ,2,0,0.,12.0,0.,12.0,0.,12.0,0.,12.0
1979-03-01 16:17:18.960 ,2,0,0.,12.0,0.,12.0,0.,12.0,0.,12.0